YAOGAN 28

Last updated on Tue Nov 21 2023 00:02:24 GMT+0000 (Coordinated Universal Time)

1 41026U 15064A 23324.55924892 .00007964 00000+0 33326-3 0 9992 2 41026 97.6219 118.0880 0010539 186.7786 173.3310 15.23804014447568

Satellite not in orbit

YAOGAN 28